Location: Bismarck
(46.7731°N, 100.8200°W)
Time: 01:12:41
(UTC-05:00)

Landsat 7 - Visible Passes

Search period start: 22 September 2014 00:00
Search period end: 02 October 2014 00:00
Orbit: 702 x 703 km, 98.2° (Epoch: 21 September)

Date Brightness Start Highest point End Pass type
(mag) Time Alt. Az. Time Alt. Az. Time Alt. Az.
22 Sep 5.5 22:49:10 26° N 22:49:10 26° N 22:51:21 10° N visible
23 Sep 6.8 00:28:03 12° NW 00:28:03 12° NW 00:28:28 10° NW visible
23 Sep 5.9 21:53:40 15° NE 21:53:40 15° NE 21:55:15 10° NNE visible
23 Sep 6.0 23:32:33 22° NNW 23:32:33 22° NNW 23:34:15 10° NNW visible
24 Sep 5.7 22:37:03 22° NNE 22:37:03 22° NNE 22:39:00 10° N visible
25 Sep 6.7 00:15:57 13° NW 00:15:57 13° NW 00:16:34 10° NW visible
25 Sep 6.0 21:41:33 12° NE 21:41:33 12° NE 21:42:27 10° NNE visible
25 Sep 6.0 23:20:27 21° NNW 23:20:27 21° NNW 23:22:04 10° NNW visible
26 Sep 5.8 22:24:57 19° NNE 22:24:57 19° NNE 22:26:37 10° N visible
27 Sep 6.7 00:03:51 14° NW 00:03:51 14° NW 00:04:34 10° NNW visible
27 Sep 6.0 23:08:21 20° N 23:08:21 20° N 23:09:49 10° N visible
28 Sep 6.0 22:12:50 16° NNE 22:12:50 16° NNE 22:14:09 10° NNE visible
28 Sep 6.6 23:51:44 14° NNW 23:51:44 14° NNW 23:52:30 10° NNW visible
29 Sep 6.1 22:56:14 18° N 22:56:14 18° N 22:57:32 10° N visible
30 Sep 6.1 22:00:44 13° NNE 22:00:44 13° NNE 22:01:36 10° NNE visible
30 Sep 6.6 23:39:37 15° NNW 23:39:37 15° NNW 23:40:22 10° NNW visible
01 Oct 6.1 22:44:07 16° N 22:44:07 16° N 22:45:13 10° N visible
